Regional Weather Roundup
Issued by NWS Grand Forks, ND

Home | Current Version | Previous Version | Text Only | Print | Product List | Glossary On
Versions: 1 2 3 4 5 6 7 8 9 10 11 12 13 14 15 16 17 18 19 20 21 22 23 24 25 26 27 28 29 30 31 32 33 34 35 36 37 38 39 40 41 42 43 44 45 46 47 48 49 50
000
ASUS43 KFGF 290231
RWRFGF
PRAIRIE TO PINES  WEATHER ROUNDUP
NATIONAL WEATHER SERVICE EASTERN NORTH DAKOTA/GRAND FORKS ND
900 PM CDT THU JUL 28 2016

 **SATELLITE DATA USED TO AUGMENT SKY COVER AT AUTOMATED STATIONS**
 *****  WEATHER ACROSS EASTERN NORTH DAKOTA  *****

CITY           SKY/WX    TMP DP  RH WIND       PRES   REMARKS
GRAND FORKS    CLEAR     67  59  75 N6        30.07S
GRAND FRKS AFB NOT AVBL
GRAND FRKS NWS   N/A     66 N/A N/A NW3         N/A
DEVILS LAKE    CLEAR     67  58  72 NE3       30.11S
FARGO          CLEAR     71  60  68 N8        30.06S
WAHPETON ARPT  PTCLDY    68  57  68 N7        30.05S
$$

 ***** WEATHER ACROSS CENTRAL AND WESTERN NORTH DAKOTA  *****

CITY           SKY/WX    TMP DP  RH WIND       PRES   REMARKS
BISMARCK       CLOUDY    72  55  55 N6        30.11S
MINOT          PTCLDY    71  54  54 E5        30.11S
JAMESTOWN      PTCLDY    68  61  78 NE5       30.08S
MINOT AFB      NOT AVBL
GARRISON         N/A     69  54  58 NE3       30.12F
WILLISTON      PTCLDY    71  54  54 E6        30.11F
DICKINSON      PTCLDY    65  57  75 E8        30.13S
HETTINGER      MOCLDY    67  57  70 E6        30.15S
$$

 *****  OTHER AIRPORT OBSERVATIONS IN OUR AREA  *****

CITY           SKY/WX    TMP DP  RH WIND       PRES   REMARKS
WALHALLA       FAIR      64  63  94 N3        30.10R
GRAFTON AIRPOR FAIR      64  59  82 NW5       30.10R
VALLEY CITY AR FAIR      66  64  94 NE3       30.11R
CANDO          FAIR      64  59  82 NE3       30.14S
CAVALIER APRT  FAIR      63  59  88 CALM      30.09S
GWINNER        MOCLDY    70  64  83 NE6       30.08R
SHEYENNE NWR     N/A     72  60  66 NE6       29.95
ROLLA          FAIR      64  55  72 S3        30.14S
 ***** THE ABOVE OBSERVATIONS ARE NON NWS ARE NOT QUALITY
       CONTROLLED AND MAY MIS-REPORT RAIN FOR SNOW...
$$

  *****  WEATHER ACROSS NORTHERN MINNESOTA  *****

CITY           SKY/WX    TMP DP  RH WIND       PRES   REMARKS
FLAG ISLAND    CLEAR     70  54  56 CALM      30.08S
WARROAD        CLEAR     64  57  77 CALM      30.09S
ROSEAU         CLEAR     64  57  77 E3        30.09S
HALLOCK        CLEAR     64  57  77 N3        30.07S
THF RVR FALLS  CLEAR     69  56  62 NE5       30.08F
BAUDETTE       CLEAR     66  55  67 N3        30.08S
WASKISH        CLEAR     66  57  72 CALM      30.08R
CROOKSTON      CLEAR     64  59  82 CALM      30.08R
STEPHEN NDAWN    N/A     68  61  77 NW3         N/A
GREENBUSH NDAW   N/A     64  57  77 N2          N/A
$$
  *****  WEATHER ACROSS CENTRAL AND WEST MINNESOTA  *****

CITY           SKY/WX    TMP DP  RH WIND       PRES   REMARKS
FOSSTON        CLEAR     61  54  77 CALM      30.09R
BEMIDJI        CLEAR     64  55  72 CALM      30.07S
PARK RAPIDS    CLOUDY    73  56  54 NE6       30.08R
ELBOW LAKE     FAIR      69  62  78 CALM      30.06S
WADENA         NOT AVBL
DETROIT LAKES  CLEAR     70  61  73 NE5       30.08F
MOORHEAD       CLEAR     66  61  82 N6        30.07S
FERGUS FALLS   MOCLDY    70  61  73 N3        30.06S
MORRIS MN      CLOUDY    72  63  73 SE3       30.06R
STAPLES        CLEAR     68  55  64 CALM      30.07S
$$
  *****  WEATHER ELSEWHERE ACROSS MINNESOTA  *****

CITY           SKY/WX    TMP DP  RH WIND       PRES   REMARKS
DULUTH         PTCLDY    61  51  70 E5        30.10R
INTRNTL FALLS  CLEAR     61  57  87 CALM      30.07R
ELY            CLEAR     63  50  63 S6        30.10R
CLOQUET        CLEAR     61  52  72 CALM      30.10S
WHEATON        PTCLDY    70  66  88 CALM      30.07R
BRAINERD       PTCLDY    68  58  70 SE6       30.07R
HIBBING        PTCLDY    62  54  74 SE5       30.10R
ALEXANDRIA     CLEAR     68  56  65 E5        30.07S
SAINT CLOUD    CLEAR     66  57  72 NE3       30.05F
MINNEAPOLIS    PTCLDY    72  56  57 NE6       30.03S
$$

  *****  WEATHER ACROSS SOUTH DAKOTA  *****

CITY           SKY/WX    TMP DP  RH WIND       PRES   REMARKS
SIOUX FALLS    MOCLDY    67  57  70 NE6       30.05R
BROOKINGS      PTCLDY    68  58  70 NE7       30.07R
WATERTOWN      CLOUDY    71  56  58 E6        30.07S
HURON          MOCLDY    72  58  61 E7        30.05R
SISSETON         N/A     69  63  81 E3        30.05R
ABERDEEN       PTCLDY    72  63  73 E3        30.06R
MITCHELL       MOCLDY    72  61  68 E6        30.05R
PIERRE         CLOUDY    66  63  90 CALM      30.07F
MOBRIDGE       MOCLDY    72  55  55 N5        30.07S
RAPID CITY     MOCLDY    70  58  65 E9        30.13S
$$

  *****  SOME WEATHER IN NEARBY STATES *****

CITY           SKY/WX    TMP DP  RH WIND       PRES   REMARKS
GLASGOW MT     CLEAR     77  50  38 CALM      30.09S
GREAT FALLS MT CLEAR     81  44  27 E9        30.07F
CHEYENNE WY    PTCLDY    66  55  67 SE8       30.26R
SCOTTSBLUFF NE PTCLDY    74  61  63 E8        30.15R
OMAHA NE       CLOUDY    76  63  64 NE9       29.98F
DES MOINES IA  PTCLDY    74  62  66 N6        29.96F
DAVENPORT IA   CLEAR     72  68  87 NW6       29.91R
CHICAGO IL     MOCLDY    72  69  90 N8        29.92S
EAU CLAIRE WI  CLOUDY    65  62  90 CALM      30.03R
LA CROSSE WI   CLOUDY    65  63  93 N9        29.98R
$$

  *****  SOME NATIONAL WEATHER *****

CITY           SKY/WX    TMP DP  RH WIND       PRES   REMARKS
LA GUARDIA NY  CLOUDY    82  66  58 W6        29.86S
RALEIGH NC     PTCLDY    87  71  58 SW15      29.86R HX  93
ATLANTA GA     MOCLDY    81  71  71 W9        30.01R
NEW ORLEANS LA MOCLDY    84  72  67 NW3       30.01S
OKLAHOMA CITY  CLOUDY    81  72  74 SE3       29.91F
ALBUQUERQUE NM MOCLDY    89  43  20 SE7       30.10S
SALT LAKE CITY CLEAR     98  31   9 N7        30.00S HX  92
LOS ANGELES CA MOSUNNY   74  64  71 W13       29.82F
BOISE ID       SUNNY     97  32  10 NW8       29.93F HX  91
SEATTLE WA     MOSUNNY   86  61  42 N10       30.03F
$$

*** WEATHER ACROSS MANITOBA...SASKATCHEWAN AND ONTARIO ***
                ***ONTARIO***

CITY           SKY/WX    TMP DP  RH WIND       PRES   REMARKS
GERALDTON      PTCLDY    63  54  72 NW5       30.08R
THUNDER BAY    PTCLDY    61  55  82 W2        30.08R
SIOUX LOOKOUT  PTCLDY    57  54  88 CALM      30.09R
TORONTO        MOCLDY    77  64  65 N16       29.92R
BIG TROUT LK   CLEAR     59  54  82 SW2       30.04S
PICKLE LAKE    PTCLDY    68  46  45 CALM      30.08S
DRYDEN         CLEAR     68  46  45 NE5       30.09S
KENORA         CLEAR     68  50  52 VRB2      30.09S
$$
                *** MANITOBA***

CITY           SKY/WX    TMP DP  RH WIND       PRES   REMARKS
BRANDON        PTCLDY    68  57  68 SW5       30.10R
DAUPHIN        CLEAR     70  61  73 S5        30.05F
ISLAND LAKE    CLOUDY    72  59  64 SE3       30.02
PILOT MOUND      N/A     68  55  64 E2          N/A
THE PAS        PTCLDY    73  63  68 W8        30.00S
THOMPSON       MOCLDY    68  59  73 E7        30.01R
WINNIPEG       PTCLDY    68  54  60 NE3       30.08F
LYNN LAKE      CLEAR     72  54  53 MISG      30.00S
CHURCHILL      PTCLDY    54  45  71 E5        30.09S
GILLAM         MOCLDY    61  59  94 SE5       30.04F
$$
                ***SASKATCHEWAN***

CITY           SKY/WX    TMP DP  RH WIND       PRES   REMARKS
ESTEVAN        MOCLDY    70  57  64 E3        30.12S
KINDERSLEY     LGT RAIN  63  59  88 E8        30.06F
LLOYDMINSTER   CLOUDY    68  57  68 S9        30.06R
PRINCE ALBERT  LGT RAIN  64  61  88 NW6       30.02F
REGINA         PTCLDY    70  52  52 S5        30.10F
YORKTON        CLEAR     73  57  56 SW5       30.08F
N. BATTLEFORD  NOT AVBL
LA RONGE       CLOUDY    70  59  68 W7        30.01F
SASKATOON      MOCLDY    73  61  64 W6        30.05F
SWIFT CURRENT  CLEAR     72  57  60 SE5       30.09F
$$
NOTE: THESE ARE AUTOMATED STATIONS WITH LIMITED QUALITY CONTROL
      "FAIR" INDICATES FEW OR NO CLOUDS BELOW 12,000 FEET WITH NO
      SIGNIFICANT WEATHER AND/OR OBSTRUCTIONS TO VISIBILITY.
      SKY/WX - SKY CONDITION AND SIGNIFICANT WEATHER.
      TMP - AIR TEMPERATURE.    DP   - DEWPOINT TEMPERATURE.
      RH  - RELATIVE HUMIDITY.  PRES - PRESSURE.
      HX  - HEAT INDEX.         WCI  - WIND CHILL INDEX.
$




USA.gov is the U.S. government's official web portal to all federal, state and local government web resources and services.